This is the latest recevied weather packets stored in our database for station/object DL6MAA-11. If no packets are shown the sender has not sent any weather packets the latest 10 day(s).
| Time | Temp. | Humidity | Pressure | Rain* | Wind** | Luminosity | Snow |
|---|---|---|---|---|---|---|---|
| 1777451852 | 12.22° C | 52% | 1017.4 hPa | 0 mm | - | 114 W/m² | - |
| 1777451537 | 11.67° C | 51% | 1017.4 hPa | 0 mm | - | 248 W/m² | - |
| 1777451241 | 11.67° C | 52% | 1017.5 hPa | 0 mm | - | 260 W/m² | - |
| 1777450948 | 11.11° C | 55% | 1017.5 hPa | 0 mm | - | 244 W/m² | - |
| 1777450636 | 10.56° C | 53% | 1017.5 hPa | 0 mm | - | 267 W/m² | - |
| 1777450350 | 10.56° C | 53% | 1017.4 hPa | 0 mm | - | 155 W/m² | - |
| 1777450035 | 11.11° C | 54% | 1017.4 hPa | 0 mm | - | 158 W/m² | - |
| 1777449742 | 11.11° C | 56% | 1017.4 hPa | 0 mm | - | 236 W/m² | - |
| 1777449448 | 10.56° C | 57% | 1017.4 hPa | 0 mm | - | 204 W/m² | - |
| 1777449148 | 10.56° C | 56% | 1017.4 hPa | 0 mm | - | 167 W/m² | - |
| 1777448833 | 10° C | 56% | 1017.4 hPa | 0 mm | - | 160 W/m² | - |
| 1777448539 | 10° C | 57% | 1017.3 hPa | 0 mm | - | 153 W/m² | - |
| 1777448236 | 10° C | 57% | 1017.3 hPa | 0 mm | - | 158 W/m² | - |
| 1777447936 | 10.56° C | 56% | 1017.3 hPa | 0 mm | - | 165 W/m² | - |
| 1777447649 | 10° C | 58% | 1017.2 hPa | 0 mm | - | 185 W/m² | - |
| 1777447343 | 10° C | 58% | 1017.2 hPa | 0 mm | - | 178 W/m² | - |
| 1777447037 | 10° C | 59% | 1017.2 hPa | 0 mm | - | 178 W/m² | - |
| 1777446749 | 9.44° C | 60% | 1017.2 hPa | 0 mm | - | 162 W/m² | - |
| 1777446451 | 9.44° C | 59% | 1017.2 hPa | 0 mm | - | 151 W/m² | - |
| 1777446138 | 9.44° C | 60% | 1017.2 hPa | 0 mm | - | 139 W/m² | - |
| 1777445836 | 9.44° C | 59% | 1017.2 hPa | 0 mm | - | 134 W/m² | - |
| 1777445542 | 9.44° C | 60% | 1017.2 hPa | 0 mm | - | 121 W/m² | - |
| 1777445245 | 9.44° C | 60% | 1017.2 hPa | 0 mm | - | 109 W/m² | - |
| 1777444950 | 9.44° C | 61% | 1017 hPa | 0 mm | - | 104 W/m² | - |
| 1777444641 | 9.44° C | 60% | 1017 hPa | 0 mm | - | 91 W/m² | - |
* Rain since midnight (hover to see other rain measurements)
** Current wind speed in m/s (hover to see current wind gust speed)